{"data":{"norad_id":62779,"epoch":"2026-05-25T04:00:03.998880Z","epoch_age_seconds":63802,"freshness":"FRESH","line1":"1 62779U 25015X   26145.16671295 -.00024107  00000+0 -72354-3 0  9998","line2":"2 62779  53.1593 327.1767 0000950  76.1778 183.4946 15.33569041  5852","mean_motion":15.33569041,"eccentricity":9.5e-5,"inclination_deg":53.1593,"raan_deg":327.1767,"arg_perigee_deg":76.1778,"mean_anomaly_deg":183.4946,"bstar":-0.00072354,"rev_number":585,"period_min":93.898609159521,"perigee_km":464.52402605001,"apogee_km":465.82425516673,"semimajor_km":6843.3111406084,"source":"CELESTRAK","updated_at":"2026-05-25T13:38:19.747940Z"}}